�N����,����,�~����,�C��,���x,�C��,����,���ϕ���,�ő�u�ԕ���,�ő厞����,���˗�,�I�_���x,�n�����x,�ő啗���N��,DTYPE
"22/10/04","00:10",0.0,22.2,89.2,1012.3,296.7,0.8,1.3,267.4,0.00,20.4,23.2,"00:00:02",1
"22/10/04","00:20",0.0,22.3,89.4,1012.8,281.6,1.0,1.6,257.1,0.00,20.5,23.2,"00:16:08",1
"22/10/04","00:30",0.0,22.3,89.4,1012.3,306.2,1.0,1.3,308.6,0.00,20.5,23.3,"00:20:16",1
"22/10/04","00:40",0.0,22.2,89.5,1012.8,290.4,1.0,1.7,287.0,0.00,20.4,23.2,"00:39:28",1
"22/10/04","00:50",0.0,22.1,89.6,1012.8,311.1,1.2,1.7,326.7,0.00,20.4,23.2,"00:40:48",1
"22/10/04","01:00",0.0,22.1,89.7,1012.3,321.4,1.1,1.3,336.2,0.00,20.4,23.0,"00:53:52",1
"22/10/04","01:10",0.0,21.9,89.8,1012.3,309.0,1.0,1.3,328.4,0.00,20.2,23.1,"01:02:56",1
"22/10/04","01:20",0.0,21.9,89.9,1012.3,293.7,1.0,1.3,287.3,0.00,20.2,23.2,"01:14:32",1
"22/10/04","01:30",0.0,21.9,90.0,1012.1,312.3,1.2,1.7,331.0,0.00,20.2,23.2,"01:25:44",1
"22/10/04","01:40",0.0,22.0,90.1,1012.3,297.3,0.8,1.7,325.8,0.00,20.3,23.2,"01:31:04",1
"22/10/04","01:50",0.0,22.0,90.2,1011.6,324.7,1.0,1.3,316.1,0.00,20.4,23.2,"01:46:32",1
"22/10/04","02:00",0.0,21.9,90.3,1011.6,318.0,1.0,1.3,317.2,0.00,20.3,23.1,"01:57:04",1
"22/10/04","02:10",0.0,21.9,90.4,1012.1,317.3,1.2,1.7,325.9,0.00,20.3,23.2,"02:03:28",1
"22/10/04","02:20",0.0,21.9,90.5,1011.6,317.6,1.2,1.6,337.1,0.00,20.3,23.1,"02:11:12",1
"22/10/04","02:30",0.0,21.9,90.7,1011.6,320.8,1.2,1.7,324.0,0.00,20.4,23.1,"02:28:56",1
"22/10/04","02:40",0.0,21.9,90.7,1012.1,307.2,1.1,1.7,333.9,0.00,20.4,23.1,"02:37:20",1
"22/10/04","02:50",0.0,21.8,90.8,1011.9,310.1,1.0,1.6,324.1,0.00,20.3,23.1,"02:41:28",1
"22/10/04","03:00",0.0,21.8,90.8,1011.9,304.6,0.8,1.3,331.4,0.00,20.3,23.0,"02:52:16",1
"22/10/04","03:10",0.0,21.7,90.8,1011.6,285.1,1.0,1.6,315.6,0.00,20.2,23.0,"03:09:28",1
"22/10/04","03:20",0.0,21.5,90.9,1011.6,297.5,1.2,1.8,317.9,0.00,20.0,23.0,"03:19:52",1
"22/10/04","03:30",0.0,21.3,91.0,1011.6,307.5,1.2,2.0,324.0,0.00,19.8,23.0,"03:29:44",1
"22/10/04","03:40",0.0,21.1,91.1,1011.9,328.1,1.2,2.1,320.5,0.00,19.6,22.9,"03:31:12",1
"22/10/04","03:50",0.0,20.8,91.3,1011.2,319.4,1.1,1.4,331.5,0.00,19.4,23.1,"03:48:16",1
"22/10/04","04:00",0.0,20.6,91.4,1011.6,302.7,1.2,1.4,321.6,0.00,19.2,23.0,"03:56:24",1
"22/10/04","04:10",0.0,20.5,91.6,1011.4,311.8,0.7,1.4,324.3,0.00,19.1,22.9,"04:00:40",1
"22/10/04","04:20",0.0,20.5,91.8,1011.2,290.2,1.0,1.6,325.1,0.00,19.2,22.8,"04:19:44",1
"22/10/04","04:30",0.0,20.7,92.0,1010.9,324.2,1.3,2.1,326.3,0.00,19.4,23.0,"04:25:28",1
"22/10/04","04:40",0.0,20.6,92.0,1010.7,323.5,1.3,1.7,343.0,0.00,19.3,22.9,"04:30:16",1
"22/10/04","04:50",0.0,20.4,92.1,1010.7,301.4,1.0,1.2,311.4,0.00,19.1,22.9,"04:41:04",1
"22/10/04","05:00",0.0,20.3,92.3,1010.4,305.5,1.1,1.6,329.4,0.00,19.0,22.8,"04:54:00",1
"22/10/04","05:10",0.0,20.3,92.4,1010.7,314.0,1.2,2.0,345.9,0.00,19.1,23.0,"05:04:24",1
"22/10/04","05:20",0.0,20.4,92.6,1010.9,334.2,0.8,1.7,347.5,0.00,19.2,22.7,"05:12:40",1
"22/10/04","05:30",0.0,20.3,92.8,1010.4,311.9,1.1,1.9,336.7,0.00,19.1,22.7,"05:27:36",1
"22/10/04","05:40",0.0,20.1,93.0,1010.9,306.6,1.0,1.6,305.7,0.00,19.0,22.8,"05:32:32",1
"22/10/04","05:50",0.0,20.2,93.1,1010.9,310.7,1.0,1.7,320.4,0.00,19.1,22.7,"05:44:16",1
"22/10/04","06:00",0.0,20.3,93.2,1010.9,331.6,1.2,1.7,346.1,0.00,19.2,22.5,"05:52:16",1
"22/10/04","06:10",0.0,20.3,93.3,1010.9,296.5,1.2,1.7,344.3,0.00,19.2,22.6,"06:01:04",1
"22/10/04","06:20",0.0,20.3,93.3,1010.9,303.6,1.1,1.4,316.6,0.00,19.2,22.3,"06:10:32",1
"22/10/04","06:30",0.0,20.3,93.5,1011.2,305.8,0.5,0.8,301.9,0.00,19.3,22.5,"06:22:08",1
"22/10/04","06:40",0.0,20.4,93.5,1011.2,328.9,1.0,1.8,328.8,0.00,19.4,22.7,"06:36:08",1
"22/10/04","06:50",0.0,20.3,93.5,1010.4,300.4,1.0,1.3,319.4,0.00,19.3,22.7,"06:40:02",1
"22/10/04","07:00",0.0,20.2,93.6,1010.9,314.3,0.8,1.3,318.6,0.00,19.2,22.6,"06:50:08",1
"22/10/04","07:10",0.0,20.3,93.8,1011.2,321.3,1.5,1.7,317.0,0.00,19.3,22.4,"07:04:08",1
"22/10/04","07:20",0.0,20.3,93.9,1010.9,302.3,0.8,1.4,321.2,0.01,19.3,22.7,"07:10:16",1
"22/10/04","07:30",0.0,20.6,93.9,1010.9,302.8,0.7,1.1,331.9,0.03,19.6,22.5,"07:28:32",1
"22/10/04","07:40",0.0,21.0,94.0,1010.9,317.2,1.2,1.7,342.5,0.04,20.0,22.5,"07:37:04",1
"22/10/04","07:50",0.0,21.8,94.1,1010.4,335.7,0.6,1.1,316.1,0.09,20.8,22.7,"07:40:08",1
"22/10/04","08:00",0.0,22.8,92.9,1010.2,309.1,0.2,0.9,224.0,0.12,21.6,22.6,"07:57:04",1
"22/10/04","08:10",0.0,22.4,91.7,1010.7,221.8,0.5,1.4,235.3,0.10,21.0,22.6,"08:08:08",1
"22/10/04","08:20",0.0,23.1,90.9,1010.9,219.3,0.2,1.3,241.8,0.08,21.6,22.6,"08:18:56",1
"22/10/04","08:30",0.0,23.4,90.5,1010.9,311.9,0.2,1.1,345.7,0.11,21.8,22.5,"08:29:36",1
"22/10/04","08:40",0.0,24.1,88.2,1010.4,15.6,0.7,1.8,342.2,0.20,22.1,22.7,"08:36:56",1
"22/10/04","08:50",0.0,25.3,84.5,1010.4,102.7,0.5,1.1,83.0,0.25,22.5,22.6,"08:41:04",1
"22/10/04","09:00",0.0,25.9,78.5,1010.2,145.1,0.3,1.3,109.2,0.19,21.9,22.6,"08:54:48",1
"22/10/04","09:10",0.0,25.8,74.5,1010.2,108.7,0.3,1.3,110.1,0.14,21.0,22.7,"09:05:12",1
"22/10/04","09:20",0.0,26.3,71.6,1009.7,345.4,0.8,2.1,3.5,0.30,20.8,22.6,"09:15:44",1
"22/10/04","09:30",0.0,26.9,69.2,1009.3,190.4,1.0,1.9,179.9,0.33,20.8,22.6,"09:25:44",1
"22/10/04","09:40",0.0,27.4,68.9,1009.5,144.4,0.6,1.3,152.3,0.40,21.2,22.5,"09:32:32",1
"22/10/04","09:50",0.0,28.0,64.9,1010.0,130.5,0.8,2.8,92.9,0.41,20.8,22.9,"09:40:16",1
"22/10/04","10:00",0.0,27.4,64.1,1010.2,157.2,1.2,2.6,183.2,0.33,20.1,22.8,"09:57:12",1
"22/10/04","10:10",0.0,27.0,64.2,1009.5,152.9,1.0,3.4,223.1,0.23,19.7,23.0,"10:08:16",1
"22/10/04","10:20",0.0,26.7,66.3,1009.0,195.2,0.7,1.9,196.8,0.12,19.9,22.9,"10:12:48",1
"22/10/04","10:30",0.0,27.9,66.2,1009.0,161.5,1.1,3.3,218.9,0.45,21.1,23.0,"10:22:00",1
"22/10/04","10:40",0.0,28.6,63.7,1009.3,165.5,1.1,2.7,134.8,0.44,21.1,23.0,"10:39:28",1
"22/10/04","10:50",0.0,28.8,63.0,1009.7,154.4,1.3,3.2,133.3,0.40,21.1,23.1,"10:46:32",1
"22/10/04","11:00",0.0,28.6,63.1,1009.5,182.7,1.7,4.1,177.4,0.38,20.9,23.3,"10:52:08",1
"22/10/04","11:10",0.0,28.5,62.2,1009.0,215.9,1.3,3.5,234.1,0.31,20.6,23.2,"11:05:28",1
"22/10/04","11:20",0.0,28.3,63.3,1008.8,202.4,1.2,3.4,232.2,0.21,20.7,23.2,"11:17:44",1
"22/10/04","11:30",0.0,28.2,64.5,1008.3,247.6,1.6,4.8,223.7,0.32,20.9,23.3,"11:20:02",1
"22/10/04","11:40",0.0,28.5,64.4,1008.3,211.4,2.1,4.8,224.3,0.41,21.2,23.3,"11:38:00",1
"22/10/04","11:50",0.0,28.6,63.1,1007.8,222.3,2.5,6.4,236.6,0.44,20.9,23.4,"11:49:12",1
"22/10/04","12:00",0.0,29.3,62.9,1008.1,191.0,1.6,4.0,190.2,0.48,21.5,23.3,"11:50:24",1
"22/10/04","12:10",0.0,29.4,62.8,1008.3,204.1,1.8,4.7,209.9,0.43,21.6,23.7,"12:08:48",1
"22/10/04","12:20",0.0,28.8,62.7,1008.3,253.3,2.1,4.4,239.7,0.34,21.0,23.7,"12:15:44",1
"22/10/04","12:30",0.0,29.1,63.0,1007.4,270.2,1.8,5.7,240.8,0.43,21.4,23.6,"12:22:00",1
"22/10/04","12:40",0.0,29.0,62.5,1007.8,218.4,2.5,7.0,212.6,0.38,21.2,23.6,"12:38:08",1
"22/10/04","12:50",0.0,29.4,61.3,1007.4,212.2,3.0,7.3,206.3,0.47,21.2,23.7,"12:40:08",1
"22/10/04","13:00",0.0,29.0,61.1,1007.4,208.6,3.4,7.7,226.0,0.35,20.8,23.7,"12:56:16",1
"22/10/04","13:10",0.0,28.7,62.4,1007.1,206.7,3.0,5.7,217.7,0.31,20.8,23.8,"13:01:36",1
"22/10/04","13:20",0.0,28.6,62.5,1006.7,217.9,2.5,6.5,223.1,0.21,20.8,23.9,"13:12:32",1
"22/10/04","13:30",0.0,28.6,63.8,1006.4,200.5,2.1,4.1,224.6,0.20,21.1,23.8,"13:27:36",1
"22/10/04","13:40",0.0,28.3,64.4,1006.0,211.4,1.7,3.6,232.7,0.16,21.0,24.0,"13:38:16",1
"22/10/04","13:50",0.0,28.1,64.5,1006.0,247.5,2.2,5.5,229.8,0.19,20.8,23.9,"13:41:20",1
"22/10/04","14:00",0.0,28.2,64.5,1005.7,258.1,1.8,3.7,212.3,0.24,20.9,24.0,"13:53:04",1
"22/10/04","14:10",0.0,28.3,63.5,1006.0,233.5,2.5,6.0,222.9,0.22,20.8,24.0,"14:00:32",1
"22/10/04","14:20",0.0,28.2,64.8,1005.5,247.0,1.6,3.3,229.6,0.14,21.0,24.0,"14:13:20",1
"22/10/04","14:30",0.0,28.8,64.3,1006.0,249.2,1.3,3.7,210.0,0.24,21.4,23.9,"14:29:12",1
"22/10/04","14:40",0.0,29.8,61.0,1006.2,264.9,1.1,2.5,100.3,0.39,21.5,24.2,"14:30:32",1
"22/10/04","14:50",0.0,29.7,60.3,1005.7,276.4,1.5,3.1,205.0,0.32,21.2,24.0,"14:41:36",1
"22/10/04","15:00",0.0,30.0,60.7,1006.0,236.2,1.8,4.8,234.6,0.43,21.6,24.2,"14:56:24",1
"22/10/04","15:10",0.0,29.9,60.5,1006.0,236.3,1.5,3.9,205.0,0.27,21.5,24.2,"15:01:36",1
"22/10/04","15:20",0.0,29.3,62.3,1006.0,207.2,1.5,4.0,235.6,0.19,21.4,24.2,"15:13:20",1
"22/10/04","15:30",0.0,29.6,63.2,1006.0,238.0,1.1,3.2,221.6,0.24,21.9,24.3,"15:27:12",1
"22/10/04","15:40",0.0,29.8,62.5,1005.7,253.3,1.3,3.7,237.5,0.27,21.9,24.3,"15:35:04",1
"22/10/04","15:50",0.0,29.7,60.6,1005.7,229.9,1.2,3.3,232.5,0.20,21.3,24.2,"15:47:20",1
"22/10/04","16:00",0.0,28.9,62.8,1005.2,260.5,1.2,3.9,206.6,0.08,21.1,24.4,"15:55:44",1
"22/10/04","16:10",0.0,28.6,64.2,1005.0,235.5,1.0,3.6,233.1,0.10,21.2,24.5,"16:06:32",1
"22/10/04","16:20",0.0,28.4,64.4,1004.5,231.4,1.8,4.4,235.7,0.12,21.1,24.2,"16:12:48",1
"22/10/04","16:30",0.0,28.1,65.6,1004.5,200.2,1.3,3.3,236.9,0.08,21.1,24.5,"16:27:36",1
"22/10/04","16:40",0.0,28.0,66.9,1004.3,189.5,1.0,1.9,200.8,0.08,21.3,24.3,"16:30:08",1
"22/10/04","16:50",0.0,28.0,67.5,1004.3,171.5,1.1,2.2,165.5,0.07,21.5,24.4,"16:45:36",1
"22/10/04","17:00",0.0,27.8,68.0,1004.1,177.8,1.2,2.8,214.5,0.07,21.4,24.4,"16:54:16",1
"22/10/04","17:10",0.0,28.1,67.2,1004.1,204.1,1.6,2.9,222.5,0.08,21.5,24.4,"17:07:28",1
"22/10/04","17:20",0.0,28.1,67.3,1003.8,195.9,1.2,3.3,183.9,0.06,21.5,24.2,"17:19:28",1
"22/10/04","17:30",0.0,27.6,68.3,1004.1,223.8,2.2,4.9,227.4,0.03,21.3,24.4,"17:27:04",1
"22/10/04","17:40",0.0,27.3,69.2,1004.3,243.6,1.8,3.4,250.0,0.00,21.2,24.5,"17:34:32",1
"22/10/04","17:50",0.0,26.9,70.8,1004.3,226.9,1.3,2.5,199.1,0.00,21.2,24.4,"17:48:24",1
"22/10/04","18:00",0.0,26.6,71.8,1004.8,226.4,2.2,4.7,230.7,0.00,21.1,24.4,"17:56:16",1
"22/10/04","18:10",0.0,26.6,71.6,1004.5,233.9,2.5,4.2,224.8,0.00,21.1,24.3,"18:01:12",1
"22/10/04","18:20",0.0,26.4,71.7,1005.0,236.0,2.2,5.4,244.9,0.00,20.9,24.3,"18:13:04",1
"22/10/04","18:30",0.0,26.3,72.3,1005.0,241.6,1.5,3.4,239.8,0.00,21.0,24.4,"18:21:12",1
"22/10/04","18:40",0.0,26.1,73.1,1005.0,264.0,1.2,2.4,243.7,0.00,20.9,24.3,"18:30:40",1
"22/10/04","18:50",0.0,25.9,73.6,1005.0,277.4,1.5,3.2,338.3,0.00,20.9,24.1,"18:43:36",1
"22/10/04","19:00",0.0,25.9,74.2,1004.8,270.6,1.7,2.8,242.5,0.00,21.0,24.3,"18:51:12",1
"22/10/04","19:10",0.0,25.9,74.6,1005.0,267.7,1.6,3.2,231.6,0.00,21.1,24.2,"19:05:36",1
"22/10/04","19:20",0.0,25.8,75.2,1005.2,278.2,1.3,3.7,263.3,0.00,21.1,24.1,"19:16:16",1
"22/10/04","19:30",0.0,25.8,75.5,1005.5,279.7,1.3,2.6,290.8,0.00,21.2,24.1,"19:24:00",1
"22/10/04","19:40",0.0,25.6,75.9,1005.5,307.4,1.0,1.8,315.7,0.00,21.1,24.0,"19:32:16",1
"22/10/04","19:50",0.0,25.4,76.8,1005.5,287.3,1.1,1.6,262.3,0.00,21.1,24.0,"19:43:20",1
"22/10/04","20:00",0.0,25.4,77.4,1005.7,288.5,0.8,1.7,329.3,0.00,21.2,23.9,"19:59:44",1
"22/10/04","20:10",0.0,25.4,77.7,1005.7,303.4,1.2,3.2,334.3,0.00,21.3,23.9,"20:02:40",1
"22/10/04","20:20",0.0,25.5,77.9,1006.0,284.5,1.1,2.4,322.1,0.00,21.4,24.0,"20:14:24",1
"22/10/04","20:30",0.0,25.4,78.3,1005.7,297.9,1.1,2.2,301.6,0.00,21.4,24.0,"20:28:32",1
"22/10/04","20:40",0.0,25.5,78.4,1005.7,299.0,1.0,2.1,329.8,0.00,21.5,24.1,"20:32:40",1
"22/10/04","20:50",0.0,25.3,78.7,1005.5,329.8,1.1,1.7,323.6,0.00,21.4,23.8,"20:47:44",1
"22/10/04","21:00",0.0,25.3,79.2,1005.5,329.8,0.7,1.9,344.8,0.00,21.5,24.0,"20:52:08",1
"22/10/04","21:10",0.0,25.2,79.6,1005.2,314.8,1.0,1.8,328.7,0.00,21.5,24.1,"21:05:44",1
"22/10/04","21:20",0.0,25.1,80.1,1005.5,335.6,1.0,1.6,328.8,0.00,21.5,23.8,"21:16:56",1
"22/10/04","21:30",0.0,24.9,80.8,1005.5,314.3,0.8,1.3,353.0,0.00,21.4,24.1,"21:24:32",1
"22/10/04","21:40",0.0,24.8,81.4,1005.7,292.9,0.7,1.4,326.6,0.00,21.4,24.0,"21:39:44",1
"22/10/04","21:50",0.0,24.7,81.9,1005.5,312.8,1.2,2.1,341.5,0.00,21.4,23.8,"21:44:40",1
"22/10/04","22:00",0.0,24.7,82.4,1005.2,322.0,1.5,2.9,332.0,0.00,21.5,23.6,"21:55:20",1
"22/10/04","22:10",0.0,24.8,82.5,1005.5,308.7,1.2,2.2,325.2,0.00,21.7,23.8,"22:06:44",1
"22/10/04","22:20",0.0,24.8,82.6,1005.5,321.7,1.2,2.0,331.8,0.00,21.7,23.9,"22:10:08",1
"22/10/04","22:30",0.0,24.9,82.7,1005.2,313.0,1.1,2.1,323.9,0.00,21.8,23.9,"22:29:36",1
"22/10/04","22:40",0.0,25.0,82.6,1005.2,299.2,0.8,1.6,304.1,0.00,21.9,23.7,"22:30:48",1
"22/10/04","22:50",0.0,25.3,82.1,1004.8,287.0,1.3,3.7,220.1,0.00,22.1,23.7,"22:41:44",1
"22/10/04","23:00",0.0,25.2,81.8,1005.2,312.4,0.8,1.4,325.9,0.00,21.9,23.8,"22:59:12",1
"22/10/04","23:10",0.0,25.1,82.0,1005.2,324.3,1.0,1.8,355.2,0.00,21.9,23.7,"23:01:20",1
"22/10/04","23:20",0.0,25.0,82.2,1004.8,316.0,0.7,1.4,316.5,0.00,21.8,23.8,"23:18:40",1
"22/10/04","23:30",0.0,25.0,83.1,1005.0,340.7,1.1,1.6,339.0,0.00,22.0,23.7,"23:24:24",1
"22/10/04","23:40",0.0,24.5,83.7,1004.8,310.5,0.6,1.4,339.4,0.00,21.6,23.7,"23:37:28",1
"22/10/04","23:50",0.2,24.5,85.0,1005.5,329.8,1.1,1.8,354.9,0.00,21.9,23.7,"23:44:24",1
"22/10/04","24:00",0.0,24.3,86.1,1004.8,333.9,1.1,1.6,339.1,0.00,21.9,23.8,"23:56:24",1
